Theta_e
280 279 279 278 278 277 277 277 277 277 277 277 277 277 277 277 277 277 279 279 280 280 281 281 282 283 284 285 286 287 288 288 289 290 292 292 291 291 291 290 290 290 290
279 278 277 277 276 276 276 276 276 276 276 276 275 276 276 276 276 276 277 278 279 280 281 281 282 282 284 284 286 287 287 288 288 289 290 291 290 290 290 289 289 288 287
277 277 276 276 275 275 275 275 274 275 275 275 274 274 274 275 275 276 276 277 278 279 280 282 283 282 282 284 286 286 286 287 287 288 289 289 290 289 289 288 286 285 284
276 276 275 275 274 274 274 274 273 273 274 274 274 273 273 273 273 274 275 276 277 279 280 282 282 283 283 284 285 286 286 286 286 286 286 287 286 286 284 283 283 282 282
276 275 275 275 274 274 273 272 272 272 273 273 272 272 271 271 272 273 275 276 277 278 280 281 282 284 284 285 285 285 285 285 285 284 284 284 284 284 284 285 284 284 284
275 275 274 274 273 272 271 270 271 271 270 271 270 270 271 271 271 273 275 276 276 278 280 281 282 284 284 285 286 285 285 285 285 284 284 284 284 284 284 283 282 282 282
274 274 273 272 271 270 270 270 270 269 269 269 269 269 270 270 271 273 274 275 276 278 280 281 282 285 285 285 285 285 285 285 284 284 283 282 283 282 282 282 282 282 282
273 272 271 270 269 269 269 268 267 267 267 267 268 269 269 269 271 272 273 275 277 279 280 282 282 284 285 285 284 284 284 284 284 285 284 283 283 283 282 282 282 282 282
272 271 269 269 269 268 267 266 265 265 266 267 268 268 268 270 270 272 273 275 277 278 280 281 282 282 284 284 284 283 282 282 282 282 282 283 283 282 282 282 282 282 282
271 269 269 268 267 267 265 264 264 265 265 265 266 268 269 270 270 272 273 275 277 277 279 280 282 282 282 283 283 282 282 282 281 281 281 282 283 283 283 283 282 282 281
269 269 268 267 266 265 264 264 263 264 264 265 266 268 268 269 269 271 273 275 276 278 279 280 281 282 282 282 282 282 282 281 281 281 282 282 282 282 282 282 281 281 280
269 269 268 267 266 264 264 263 264 263 264 265 266 267 269 268 270 271 273 274 276 277 278 279 280 282 282 282 282 283 282 282 282 282 282 282 281 281 281 281 281 280 280
269 268 267 266 265 264 264 264 264 263 263 265 266 267 268 268 270 271 274 274 275 276 278 278 279 281 283 283 283 282 283 283 282 282 281 281 281 280 279 279 279 279 279
268 267 267 266 265 266 265 264 264 263 263 265 266 267 268 268 269 272 273 273 274 276 276 277 280 281 282 283 283 282 282 282 281 280 280 279 279 279 278 278 278 278 279
268 267 267 266 266 266 266 265 265 264 264 266 266 267 268 268 270 272 273 275 275 274 275 276 278 280 280 281 281 281 281 280 280 279 279 279 278 278 277 277 278 278 277
267 267 266 266 266 266 266 267 268 267 265 265 266 267 268 269 270 271 273 272 272 272 273 274 276 277 278 278 279 279 279 279 279 278 278 277 277 276 277 277 276 277 277
267 267 266 267 267 266 267 267 268 270 268 268 265 265 267 268 269 270 271 270 271 271 272 273 274 275 276 277 277 278 278 278 277 277 277 276 276 276 276 276 277 277 277
268 267 266 267 266 267 267 267 267 267 267 269 269 266 265 266 268 268 268 269 270 270 270 271 272 272 273 274 275 275 275 275 275 275 275 275 275 275 275 275 276 276 276
267 267 267 267 267 267 267 267 267 267 267 266 267 267 267 266 266 266 267 268 268 269 269 269 270 271 271 272 272 273 273 273 273 274 274 274 274 274 274 274 275 275 275
268 267 267 267 268 268 267 267 267 267 266 266 266 265 266 266 266 266 267 267 267 267 268 268 269 270 270 271 271 272 272 273 273 273 273 273 273 273 273 273 273 274 274
268 268 267 268 267 267 267 267 267 267 266 266 266 266 264 265 265 266 266 266 266 266 267 268 268 269 269 270 271 271 271 272 272 272 272 273 273 273 273 273 272 272 273
267 267 268 267 267 267 267 267 267 266 266 265 266 266 265 265 265 265 266 267 267 266 266 266 268 268 269 269 269 270 270 271 271 271 271 272 272 271 271 271 271 272 272
268 268 267 267 267 267 268 267 267 267 266 266 265 266 266 265 265 265 265 265 266 267 267 267 267 268 268 268 269 269 270 270 270 270 270 271 270 270 270 270 271 271 272
268 267 268 268 268 268 268 268 268 267 266 266 266 266 266 266 266 266 266 266 266 267 267 267 267 267 268 268 268 268 268 269 269 270 269 270 270 270 270 270 270 271 272
268 268 268 268 268 268 268 268 268 267 267 267 267 267 267 267 267 267 266 266 266 267 267 267 268 268 268 268 269 269 269 269 269 269 269 269 270 270 270 270 271 272 273
269 269 269 269 268 268 268 268 268 268 268 268 268 268 268 269 268 268 267 267 267 268 268 268 268 268 268 269 269 269 269 269 270 270 270 269 270 270 270 271 272 273 274
Wind_Speed
38 37 38 39 40 40 40 40 40 40 40 38 38 38 38 37 37 36 35 34 30 30 31 31 32 33 31 31 30 29 28 29 29 24 19 17 20 22 24 24 23 23 23
37 38 39 40 39 40 40 39 37 36 38 35 35 38 40 40 39 38 36 34 31 30 31 33 33 32 30 30 27 27 27 26 27 26 26 24 24 25 25 21 21 22 23
36 38 39 39 40 40 38 39 39 35 36 37 34 34 40 42 42 40 37 33 30 31 33 37 37 33 32 28 27 27 24 24 24 25 19 25 24 24 19 18 22 21 20
37 39 39 40 42 40 39 41 39 39 37 37 35 41 40 45 43 39 32 30 31 30 33 35 36 33 30 24 28 22 22 20 17 15 14 14 15 17 17 17 15 15 15
38 39 40 43 42 41 41 44 43 41 39 36 40 45 44 43 36 30 31 32 32 34 31 33 31 28 26 22 24 22 20 18 16 15 14 15 18 18 19 16 14 15 17
39 40 42 42 42 42 45 47 49 45 40 37 41 40 36 34 31 30 28 31 34 30 31 32 31 25 23 21 23 22 23 22 21 18 18 19 18 17 14 18 19 16 12
41 43 42 42 43 47 48 47 46 42 40 39 38 34 32 33 29 29 30 29 28 27 27 28 30 20 16 15 17 17 14 18 19 16 13 13 15 17 17 15 14 12 11
43 43 42 43 47 47 47 45 42 39 36 35 33 30 33 35 30 29 28 25 23 23 24 23 22 16 14 14 12 14 16 15 10 12 12 11 11 10 12 11 10 10 10
44 43 44 46 47 47 46 42 40 37 35 36 34 32 37 28 25 27 26 24 25 25 19 19 17 13 4 8 9 8 9 12 15 16 16 16 16 16 15 12 11 10 11
44 42 45 45 44 43 40 38 36 34 34 39 33 24 26 27 29 26 23 25 23 19 19 22 10 12 9 7 8 9 10 11 13 13 12 9 9 10 12 11 11 11 12
44 45 45 43 41 39 36 36 34 35 29 30 29 29 29 25 31 24 23 26 21 24 20 17 13 7 10 10 11 11 10 9 10 11 12 13 14 15 15 14 14 15 14
44 44 44 41 39 37 36 35 32 28 28 29 32 34 29 33 25 24 25 21 24 19 20 17 13 10 13 10 11 10 8 10 12 13 13 12 10 11 13 15 16 15 16
43 43 42 39 37 35 33 33 32 29 27 29 35 31 33 31 26 25 30 23 21 21 18 17 17 10 9 8 9 9 11 12 14 12 9 8 10 11 11 12 12 14 15
42 41 39 37 37 34 33 32 31 29 28 35 31 32 30 30 26 29 32 26 23 21 18 18 13 7 6 3 8 13 11 7 4 4 4 6 8 10 11 12 12 14 16
40 39 37 36 36 36 34 32 30 27 25 29 29 28 29 29 26 27 23 23 18 16 17 16 12 1 2 5 10 9 6 4 4 5 6 8 9 10 12 13 14 15 16
38 37 35 35 35 36 37 37 30 27 24 22 21 22 24 21 22 22 23 19 17 19 18 15 10 8 5 5 7 7 5 6 8 9 10 12 12 12 12 14 15 16 18
35 34 33 33 33 35 35 36 40 35 29 25 21 21 21 21 21 22 20 22 18 18 15 13 10 9 7 5 5 7 9 12 13 13 13 14 14 14 15 15 16 17 19
33 30 30 31 32 32 33 33 34 36 38 36 27 23 22 22 22 21 20 19 13 11 10 10 9 8 8 9 11 13 13 14 14 14 14 14 15 16 17 17 18 19 21
33 30 29 30 30 31 32 34 34 35 35 35 35 30 25 25 20 25 17 15 15 14 12 10 10 9 9 9 10 11 12 13 14 14 14 15 16 17 18 19 20 21 22
31 28 28 30 31 32 33 34 35 34 34 34 33 33 29 31 32 24 19 17 15 13 13 13 12 11 12 12 12 13 13 14 15 15 16 17 17 19 20 21 21 23 23
32 31 29 30 32 33 33 34 34 33 34 34 33 31 25 26 24 22 21 18 17 15 15 14 13 13 13 13 14 15 16 15 16 17 18 19 20 21 21 22 23 23 23
31 31 31 32 33 33 33 33 33 33 33 34 34 31 26 25 25 24 23 20 17 15 14 16 16 15 15 15 16 17 18 18 17 19 20 20 21 21 21 22 21 21 21
31 33 33 32 32 33 34 33 33 33 34 33 32 31 29 28 26 24 23 21 19 16 14 16 18 18 17 17 18 19 21 20 19 20 21 21 20 19 19 19 19 19 18
33 33 33 33 33 33 34 35 35 35 34 34 32 31 30 27 26 25 23 22 20 18 16 16 17 19 20 19 19 20 21 20 20 19 20 19 18 15 16 17 16 16 14
33 33 32 33 33 34 35 35 36 36 35 33 32 31 29 28 27 26 24 22 21 20 18 16 15 15 16 17 18 17 18 19 19 17 16 15 14 13 13 14 13 12 13
32 32 32 33 34 35 36 36 36 36 35 33 32 31 29 28 28 28 26 24 22 20 17 15 13 13 13 14 15 16 15 14 13 11 10 10 10 10 10 11 10 13 16
Wind_Direction
325 325 324 324 325 323 320 318 317 315 315 315 314 315 317 319 318 314 310 311 307 300 299 302 297 290 288 288 289 279 269 267 266 264 244 218 208 215 207 208 212 216 221
326 326 326 327 327 325 323 321 318 313 313 311 310 312 313 313 316 317 312 310 309 307 310 312 306 297 288 286 282 278 271 264 261 255 242 219 207 205 200 207 227 235 236
329 329 328 328 328 326 323 322 321 314 312 311 307 309 313 313 311 313 310 308 309 309 309 312 309 303 285 286 281 269 263 261 254 244 218 200 199 206 220 230 239 241 241
331 330 329 328 327 324 322 323 323 319 311 314 306 310 310 314 312 310 308 303 304 305 304 308 303 298 283 280 278 260 254 250 246 239 233 228 228 233 233 226 223 231 231
331 329 329 327 327 325 325 323 321 321 312 307 305 307 309 313 311 309 304 305 305 303 302 312 302 298 282 279 259 255 242 231 226 223 219 213 216 223 233 243 250 245 243
331 331 330 329 328 327 325 322 320 319 315 308 308 309 310 311 309 307 302 301 299 301 310 307 301 295 280 287 248 250 238 226 221 214 216 226 233 235 239 238 233 228 233
334 334 332 331 329 327 323 322 322 321 316 313 313 314 316 317 313 309 304 300 303 302 306 310 304 296 267 254 238 229 230 230 231 223 216 231 238 238 229 225 221 236 233
336 335 333 332 327 327 327 328 327 326 324 322 320 325 315 315 313 312 310 307 303 315 319 313 305 311 276 233 225 233 232 226 217 225 221 234 238 238 237 231 248 230 233
338 335 334 331 331 333 333 334 332 327 329 329 323 309 317 327 325 320 320 315 323 316 315 325 309 317 266 220 209 212 216 227 228 236 240 241 244 244 243 232 215 235 244
336 335 335 337 336 336 337 333 330 334 318 315 321 334 337 337 341 326 321 320 325 317 326 325 312 288 277 245 249 250 236 231 232 217 205 204 203 208 219 223 217 236 258
338 338 339 340 340 341 337 334 335 329 342 336 339 343 343 342 336 331 326 330 331 326 326 327 317 291 261 250 243 250 241 212 199 181 184 196 208 216 225 235 241 248 256
339 340 342 344 345 345 342 340 343 344 344 344 347 350 348 336 335 332 331 332 334 339 329 325 313 326 269 239 215 220 188 178 175 178 192 191 205 220 237 247 252 254 258
341 343 346 348 350 350 345 351 351 353 344 349 344 337 338 340 343 346 356 350 335 339 340 324 312 291 262 231 201 191 187 182 171 173 195 228 250 256 253 253 258 260 262
343 346 348 350 351 351 354 354 351 345 342 339 333 334 334 337 340 350 345 345 344 346 333 337 330 276 306 214 159 182 180 192 211 227 237 257 264 267 266 264 262 264 270
345 347 349 350 349 350 353 354 348 344 336 330 331 331 334 334 338 334 336 338 3 346 334 340 360 202 214 136 168 173 187 216 273 300 305 301 291 280 277 275 277 280 283
346 347 349 348 350 351 350 350 360 355 344 336 333 332 333 331 332 335 337 343 341 329 332 337 341 24 77 125 154 175 210 260 287 294 295 294 287 281 279 279 283 288 291
345 346 345 348 350 350 350 350 346 355 359 1 346 339 339 336 336 337 339 331 329 325 327 328 318 305 302 299 283 275 279 285 288 288 289 287 285 283 282 283 286 289 292
347 345 344 347 349 347 348 347 347 345 346 350 358 350 339 339 340 337 338 322 326 331 333 327 323 312 298 287 281 280 279 281 282 285 288 287 285 285 284 285 289 292 294
347 344 344 347 346 347 346 346 345 344 344 343 347 352 353 353 339 339 339 340 337 334 331 326 319 315 306 295 287 284 284 286 287 288 289 287 286 286 285 287 289 291 292
344 345 346 345 345 347 346 344 344 343 343 344 345 345 348 348 327 338 345 343 335 326 319 314 310 305 300 296 291 288 286 287 288 289 288 286 286 286 289 290 290 291 289
346 348 346 345 347 346 344 344 343 343 344 344 345 345 334 325 331 338 340 338 332 324 315 307 304 302 300 297 294 291 290 289 288 287 285 285 286 285 287 287 288 288 289
348 347 348 347 345 344 344 344 345 346 347 346 346 346 343 342 341 337 334 332 326 318 309 302 301 299 297 294 291 291 290 290 291 288 286 287 287 288 289 288 289 288 287
349 351 347 345 344 344 345 348 348 349 349 349 348 346 346 344 342 339 336 332 327 320 308 297 293 291 289 288 287 288 289 291 292 289 289 286 285 286 285 285 286 285 284
353 348 346 345 346 346 348 349 351 353 351 350 350 349 347 346 344 343 339 334 329 323 315 302 293 290 287 284 282 285 289 292 290 288 285 283 282 280 281 282 284 285 281
351 349 348 347 348 349 350 352 353 353 353 352 352 350 350 349 349 348 345 340 334 328 323 314 301 289 285 284 284 284 283 284 286 283 280 279 280 279 279 282 285 283 286
354 353 351 351 352 353 352 352 353 354 354 354 353 353 353 355 356 355 352 349 345 341 336 329 317 303 293 289 289 289 289 286 281 273 270 271 277 279 280 281 284 290 297